Location: Elizabeth Ann Machol Dragonfly Observatory
(32.8132°N, 108.2740°W)
Time: 10:28:34
(UTC-06:00)

Hubble Space Telescope - Visible Passes

Search period start: 21 March 2019 00:00
Search period end: 31 March 2019 00:00
Orbit: 537 x 540 km, 28.5° (Epoch: 21 March)

Date Brightness Start Highest point End Pass type
(mag) Time Alt. Az. Time Alt. Az. Time Alt. Az.
21 Mar 3.3 21:07:14 10° SSW 21:07:21 10° S 21:07:21 10° S visible
22 Mar 2.7 20:56:09 10° SSW 20:57:55 16° S 20:57:55 16° S visible
23 Mar 2.3 20:45:14 10° SSW 20:48:24 21° SSE 20:48:24 21° SSE visible
24 Mar 2.0 20:34:25 10° SW 20:37:51 25° SSE 20:38:49 23° SE visible
25 Mar 1.9 20:23:41 10° SW 20:27:18 29° SSE 20:29:10 20° ESE visible
25 Mar 3.7 22:04:14 10° WSW 22:04:31 12° WSW 22:04:31 12° WSW visible
26 Mar 1.7 20:13:01 10° SW 20:16:45 33° SSE 20:19:27 16° ESE visible
26 Mar 3.3 21:53:43 10° WSW 21:54:48 17° WSW 21:54:48 17° WSW visible
27 Mar 1.6 20:02:24 10° WSW 20:06:13 37° S 20:09:41 12° ESE visible
27 Mar 2.7 21:43:13 10° WSW 21:45:02 23° WSW 21:45:02 23° WSW visible
28 Mar 1.5 19:51:49 10° WSW 19:55:42 41° S 19:59:35 10° ESE visible
28 Mar 2.2 21:32:43 10° WSW 21:35:13 30° SW 21:35:13 30° SW visible
29 Mar 1.8 21:22:15 10° WSW 21:25:22 36° SW 21:25:22 36° SW visible
30 Mar 1.7 21:11:47 10° WSW 21:15:31 36° SSW 21:15:31 36° SSW visible
